• In Belarus
  • List of Countries
  • For 7 days
  • Water Temperature
  • Satellite Maps
  • Weather Map
  • Weather Widgets
  • user-avatar
    Login

    Hourly Weather Carmen

    Today, 20 June, Wednesday

    Time Temperature Precipitation Wind Pressure Humidity
    00:00 +28°C° 0 mm 6 mps 757 mmHg 81%
    01:00 +28°C° 0.1 mm 6 mps 757 mmHg 80%
    02:00 +28°C° 0.1 mm 6 mps 757 mmHg 80%
    03:00 +27°C° 0.1 mm 7 mps 757 mmHg 79%
    04:00 +27°C° 0 mm 6 mps 757 mmHg 80%
    05:00 +27°C° 0 mm 6 mps 757 mmHg 81%
    06:00 +27°C° 0 mm 6 mps 757 mmHg 82%
    07:00 +28°C° 0 mm 6 mps 757 mmHg 78%
    08:00 +29°C° 0 mm 5 mps 757 mmHg 74%
    09:00 +32°C° 0 mm 5 mps 757 mmHg 70%
    10:00 +33°C° 0 mm 4 mps 757 mmHg 65%
    11:00 +35°C° 0 mm 4 mps 757 mmHg 60%
    12:00 +37°C° 0 mm 3 mps 757 mmHg 55%
    13:00 +37°C° 0 mm 3 mps 756 mmHg 52%
    14:00 +38°C° 0 mm 2 mps 756 mmHg 49%
    15:00 +38°C° 0 mm 2 mps 755 mmHg 46%
    16:00 +37°C° 0 mm 2 mps 755 mmHg 51%
    17:00 +36°C° 0 mm 3 mps 755 mmHg 56%
    18:00 +35°C° 0 mm 3 mps 755 mmHg 61%
    19:00 +34°C° 0 mm 3 mps 755 mmHg 66%
    20:00 +31°C° 0 mm 3 mps 756 mmHg 71%
    21:00 +30°C° 0 mm 4 mps 756 mmHg 75%
    22:00 +30°C° 0 mm 4 mps 756 mmHg 75%
    23:00 +30°C° 0 mm 5 mps 756 mmHg 74%

    Tomorrow, 21 June, Thursday

    Time Temperature Precipitation Wind Pressure Humidity
    00:00 +30°C° 0 mm 6 mps 757 mmHg 74%
    01:00 +29°C° 0 mm 6 mps 756 mmHg 75%
    02:00 +29°C° 0 mm 6 mps 756 mmHg 77%
    03:00 +29°C° 0 mm 6 mps 756 mmHg 78%
    04:00 +28°C° 0 mm 6 mps 756 mmHg 79%
    05:00 +28°C° 0 mm 5 mps 756 mmHg 81%
    06:00 +27°C° 0 mm 5 mps 757 mmHg 82%
    07:00 +29°C° 0 mm 5 mps 757 mmHg 77%
    08:00 +30°C° 0 mm 5 mps 757 mmHg 72%
    09:00 +33°C° 0 mm 4 mps 758 mmHg 67%
    10:00 +35°C° 0 mm 4 mps 757 mmHg 61%
    11:00 +36°C° 0 mm 3 mps 757 mmHg 56%
    12:00 +38°C° 0 mm 3 mps 757 mmHg 51%
    13:00 +38°C° 0 mm 3 mps 756 mmHg 48%
    14:00 +39°C° 0 mm 2 mps 756 mmHg 46%
    15:00 +39°C° 0 mm 2 mps 755 mmHg 43%
    16:00 +38°C° 0 mm 3 mps 755 mmHg 48%
    17:00 +37°C° 0 mm 3 mps 755 mmHg 53%
    18:00 +36°C° 0 mm 3 mps 755 mmHg 58%
    19:00 +35°C° 0.4 mm 4 mps 756 mmHg 64%
    20:00 +33°C° 0.4 mm 4 mps 756 mmHg 70%
    21:00 +32°C° 0.4 mm 5 mps 757 mmHg 76%
    22:00 +30°C° 0.7 mm 5 mps 757 mmHg 79%
    23:00 +29°C° 0.7 mm 5 mps 757 mmHg 83%

    Day after tomorrow, 22 June, Friday

    Time Temperature Precipitation Wind Pressure Humidity
    00:00 +29°C° 0.7 mm 4 mps 758 mmHg 86%
    01:00 +28°C° 0.1 mm 5 mps 757 mmHg 87%
    02:00 +28°C° 0.1 mm 5 mps 757 mmHg 88%
    03:00 +28°C° 0.1 mm 5 mps 757 mmHg 89%
    04:00 +28°C° 0 mm 5 mps 757 mmHg 88%
    05:00 +28°C° 0 mm 5 mps 757 mmHg 88%
    06:00 +28°C° 0 mm 4 mps 757 mmHg 88%
    07:00 +29°C° 0 mm 4 mps 758 mmHg 81%
    08:00 +32°C° 0 mm 4 mps 758 mmHg 75%
    09:00 +33°C° 0 mm 3 mps 758 mmHg 68%
    10:00 +35°C° 0 mm 3 mps 758 mmHg 62%
    11:00 +37°C° 0 mm 2 mps 758 mmHg 56%
    12:00 +38°C° 0 mm 2 mps 758 mmHg 50%
    13:00 +38°C° 0 mm 2 mps 757 mmHg 49%
    14:00 +38°C° 0 mm 2 mps 757 mmHg 48%
    15:00 +39°C° 0 mm 3 mps 756 mmHg 48%
    16:00 +37°C° 0.2 mm 3 mps 756 mmHg 54%
    17:00 +36°C° 0.2 mm 3 mps 756 mmHg 60%
    18:00 +34°C° 0.2 mm 4 mps 756 mmHg 66%
    19:00 +33°C° 1.8 mm 4 mps 756 mmHg 71%
    20:00 +32°C° 1.8 mm 4 mps 757 mmHg 77%
    21:00 +29°C° 1.8 mm 4 mps 757 mmHg 82%
    22:00 +29°C° 2.2 mm 4 mps 758 mmHg 85%
    23:00 +28°C° 2.2 mm 4 mps 758 mmHg 88%

    23 June, Saturday

    Time Temperature Precipitation Wind Pressure Humidity
    00:00 +28°C° 2.2 mm 4 mps 759 mmHg 91%
    01:00 +28°C° 0.1 mm 4 mps 758 mmHg 91%
    02:00 +28°C° 0.1 mm 4 mps 758 mmHg 91%
    03:00 +27°C° 0.1 mm 5 mps 757 mmHg 91%
    04:00 +27°C° 0 mm 4 mps 758 mmHg 90%
    05:00 +27°C° 0 mm 4 mps 758 mmHg 90%
    06:00 +27°C° 0 mm 4 mps 758 mmHg 89%
    07:00 +29°C° 0 mm 4 mps 758 mmHg 81%
    08:00 +30°C° 0 mm 5 mps 759 mmHg 73%
    09:00 +33°C° 0 mm 5 mps 759 mmHg 66%
    10:00 +34°C° 0 mm 5 mps 759 mmHg 61%
    11:00 +35°C° 0 mm 4 mps 758 mmHg 56%
    12:00 +36°C° 0 mm 3 mps 758 mmHg 51%
    13:00 +37°C° 0.1 mm 3 mps 757 mmHg 49%
    14:00 +37°C° 0.1 mm 3 mps 756 mmHg 48%
    15:00 +37°C° 0.1 mm 3 mps 756 mmHg 46%
    16:00 +36°C° 0.1 mm 3 mps 756 mmHg 51%
    17:00 +35°C° 0.1 mm 3 mps 756 mmHg 56%
    18:00 +34°C° 0.1 mm 3 mps 756 mmHg 60%
    19:00 +32°C° 2.1 mm 4 mps 756 mmHg 69%
    20:00 +30°C° 2.1 mm 4 mps 757 mmHg 77%
    21:00 +28°C° 2.1 mm 5 mps 757 mmHg 85%
    22:00 +28°C° 0.9 mm 5 mps 758 mmHg 85%
    23:00 +28°C° 0.9 mm 6 mps 758 mmHg 86%

    24 June, Sunday

    Time Temperature Precipitation Wind Pressure Humidity
    00:00 +27°C° 0.9 mm 6 mps 758 mmHg 86%
    01:00 +27°C° 0 mm 6 mps 758 mmHg 85%
    02:00 +27°C° 0 mm 7 mps 757 mmHg 84%
    03:00 +28°C° 0 mm 7 mps 757 mmHg 83%
    04:00 +28°C° 0 mm 7 mps 757 mmHg 83%
    05:00 +28°C° 0 mm 7 mps 757 mmHg 83%
    06:00 +28°C° 0 mm 7 mps 757 mmHg 83%
    07:00 +29°C° 0 mm 7 mps 758 mmHg 78%
    08:00 +30°C° 0 mm 7 mps 758 mmHg 74%
    09:00 +32°C° 0 mm 7 mps 759 mmHg 69%
    10:00 +33°C° 0 mm 6 mps 758 mmHg 65%
    11:00 +34°C° 0 mm 6 mps 758 mmHg 60%
    12:00 +35°C° 0 mm 5 mps 758 mmHg 56%
    13:00 +35°C° 0 mm 5 mps 757 mmHg 56%
    14:00 +35°C° 0 mm 4 mps 756 mmHg 57%
    15:00 +34°C° 0 mm 3 mps 756 mmHg 58%
    16:00 +33°C° 0 mm 3 mps 756 mmHg 62%
    17:00 +32°C° 0 mm 2 mps 756 mmHg 66%
    18:00 +31°C° 0 mm 2 mps 756 mmHg 70%
    19:00 +30°C° 0.4 mm 2 mps 757 mmHg 72%
    20:00 +30°C° 0.4 mm 2 mps 757 mmHg 73%
    21:00 +29°C° 0.4 mm 3 mps 758 mmHg 75%
    22:00 +29°C° 0.4 mm 3 mps 758 mmHg 78%
    23:00 +28°C° 0.4 mm 4 mps 758 mmHg 81%

    25 June, Monday

    Time Temperature Precipitation Wind Pressure Humidity
    00:00 +28°C° 0.4 mm 5 mps 758 mmHg 85%
    01:00 +28°C° 0 mm 5 mps 758 mmHg 84%
    02:00 +28°C° 0 mm 6 mps 758 mmHg 84%
    03:00 +27°C° 0 mm 6 mps 758 mmHg 84%
    04:00 +27°C° 0 mm 6 mps 758 mmHg 84%
    05:00 +27°C° 0 mm 6 mps 758 mmHg 84%
    06:00 +27°C° 0 mm 6 mps 759 mmHg 84%
    07:00 +29°C° 0 mm 6 mps 759 mmHg 79%
    08:00 +30°C° 0 mm 6 mps 759 mmHg 74%
    09:00 +32°C° 0 mm 6 mps 759 mmHg 69%
    10:00 +34°C° 0 mm 5 mps 759 mmHg 64%
    11:00 +35°C° 0 mm 4 mps 759 mmHg 60%
    12:00 +36°C° 0 mm 3 mps 758 mmHg 56%
    13:00 +37°C° 0 mm 3 mps 758 mmHg 53%
    14:00 +37°C° 0 mm 3 mps 757 mmHg 50%
    15:00 +38°C° 0 mm 3 mps 757 mmHg 48%
    16:00 +37°C° 0 mm 4 mps 757 mmHg 54%
    17:00 +35°C° 0 mm 4 mps 757 mmHg 59%
    18:00 +34°C° 0 mm 5 mps 757 mmHg 65%
    19:00 +33°C° 0.9 mm 5 mps 758 mmHg 70%
    20:00 +32°C° 0.9 mm 5 mps 758 mmHg 75%
    21:00 +29°C° 0.9 mm 5 mps 759 mmHg 80%
    22:00 +29°C° 0.1 mm 5 mps 759 mmHg 80%
    23:00 +29°C° 0.1 mm 5 mps 759 mmHg 80%
    Show more